Showing default

ICEYE-X47, 62389

Orbit data source: Space-Track

ICEYE-X47, 62389 is a payload satellite owned by ICEYE (FI) in LEO that was launched on Sat, 21 Dec 2024 UTC via an FALCON 9 launch vehicle from the Air Force Western Test Range (AFWTR). Payload-class satellites include a variety of spacecraft equipped with specific instruments for various scientific and technological missions. These include communications satellites like Starlink; space stations such as the ISS; scientific satellites like the Hubble; Earth observation satellites from companies like Planet Labs, Umbra, and HawkEye 360; GPS; miniature CubeSats for education and research; and military/defense satellites.

Loading next visibility...
Identifier
62389, 2024-247N
Orbit
LEO
Country
Flag of FIFI / FIN
Related business
Manufacturer
ICEYE
Mission
Operational Commercial Radar Imaging
Bus & Motor
ICEYE, Unknown motor
Mass
80 kg wet, 80 kg dry
Launch date (UTC)
2024-12-21 (1 year ago)
Launch vehicle
FALCON 9
Launch site
Air Force Western Test Range (AFWTR)
Object type
Payload
Rocket body
Debris
Shape & HBR
Box + 1 Pan, 2.4 m
Radar Cross Section
0.776 m², Medium (>0.1 m² and < 1m²)

Expand to show TLE details & history
Last TLE update: 7 hours ago

TLE from 7 hours ago
0 ICEYE-X47
1 62389U 24247N   26094.26083576  .00013683  00000-0  78367-3 0  9990
2 62389  44.9976  31.6371 0001075 244.8555 115.2211 15.12607568 70984
Epoch: 2026-04-04T06:15Z
TLE epoch observation values (Epoch: 2026-04-04T06:15:36.209Z)
Latitude
-0.00001°
Longitude
105.15306°
Altitude
528.566 km
Speed
7.6 km/s
True Right ascension
02h 06m 32s
True Declination
0° 00' 00"
Sunlit
Object was in daylight at epoch
Visualization orbit readout
Latitude
Unknown
Longitude
Unknown
Altitude
Unknown
Speed
Unknown
Apparent Right ascension
Unknown
Apparent Declination
Unknown
Sunlit
N/A
Visualization observer readout
Local Sidereal Time
19:09:57
Azimuth
Unknown
Elevation
Unknown
Doppler factor
Unknown
Orbital elements
Apogee altitude
530.593 km
Perigee altitude
529.108 km
Semi-major axis
6,907.987 km
Eccentricity
0.00011
Inclination
44.9976°
RAAN
31.6371°
Arg. of periapsis
244.8555°
True anomaly
115.23224°
Mean anomaly
115.2211°
Eccentric anomaly
115.22667°
Mean motion
3.78021 °/min
Orbital period
95.23 mins
BSTAR
0.00078367
Loading maneuver chart data...
Computing Atmospheric mass density...
Loading historical data...
Loading historical data...
Loading historical data...
Loading historical data...
Loading historical data...
Loading historical data...
Loading historical data...

Documentation

Showing up to 5 results
|